Datum;Richtung;Anzahl Messungen;Anzahl Fahrzeuge;Durchschnittsgeschwindigkeit;Höchstgeschwindigkeit
28/02/2020 10:00;1;137;137;33.57;51.00
28/02/2020 10:30;1;134;134;34.30;52.00
28/02/2020 11:00;1;131;131;33.78;76.00
28/02/2020 11:30;1;160;160;33.72;64.00
28/02/2020 12:00;1;189;189;32.60;57.00
28/02/2020 12:30;1;193;193;32.43;59.00
28/02/2020 13:00;1;164;164;33.71;53.00
28/02/2020 13:30;1;158;158;33.52;55.00
28/02/2020 14:00;1;160;160;33.04;51.00
28/02/2020 14:30;1;162;162;33.43;55.00
28/02/2020 15:00;1;172;172;34.20;61.00
28/02/2020 15:30;1;164;164;32.62;74.00
28/02/2020 16:00;1;147;147;33.57;50.00
28/02/2020 16:30;1;166;166;32.87;79.00
28/02/2020 17:00;1;173;173;32.39;51.00
28/02/2020 17:30;1;193;193;32.87;50.00
28/02/2020 18:00;1;173;173;33.83;53.00
28/02/2020 18:30;1;132;132;34.41;48.00
28/02/2020 19:00;1;117;117;32.82;56.00
28/02/2020 19:30;1;105;105;34.85;62.00
28/02/2020 20:00;1;79;79;35.95;50.00
28/02/2020 20:30;1;82;82;36.76;76.00
28/02/2020 21:00;1;59;59;37.76;51.00
28/02/2020 21:30;1;56;56;36.02;48.00
28/02/2020 22:00;1;59;59;39.61;57.00
28/02/2020 22:30;1;42;42;38.21;57.00
28/02/2020 23:00;1;26;26;38.35;51.00
28/02/2020 23:30;1;34;34;39.82;70.00
29/02/2020 00:00;1;29;29;37.69;60.00
29/02/2020 00:30;1;15;15;39.07;65.00
29/02/2020 01:00;1;14;14;43.36;53.00
29/02/2020 01:30;1;18;18;39.94;67.00
29/02/2020 02:00;1;19;19;43.37;59.00
29/02/2020 02:30;1;12;12;47.75;62.00
29/02/2020 03:00;1;17;17;43.12;55.00
29/02/2020 03:30;1;15;15;42.13;51.00
29/02/2020 04:00;1;21;21;39.48;60.00
29/02/2020 04:30;1;16;16;38.44;55.00
29/02/2020 05:00;1;11;11;42.64;56.00
29/02/2020 05:30;1;30;30;39.13;63.00
29/02/2020 06:00;1;16;16;39.12;60.00
29/02/2020 06:30;1;15;15;36.87;52.00
29/02/2020 07:00;1;35;35;39.09;49.00
29/02/2020 07:30;1;41;41;36.51;62.00
29/02/2020 08:00;1;59;59;33.59;58.00
29/02/2020 08:30;1;99;99;35.33;49.00
29/02/2020 09:00;1;84;84;34.86;52.00
29/02/2020 09:30;1;127;127;33.98;49.00
29/02/2020 10:00;1;138;138;32.72;47.00
29/02/2020 10:30;1;134;134;32.60;53.00
29/02/2020 11:00;1;170;170;33.09;52.00
29/02/2020 11:30;1;166;166;33.72;51.00
29/02/2020 12:00;1;147;147;33.79;56.00
29/02/2020 12:30;1;165;165;34.79;60.00
29/02/2020 13:00;1;152;152;34.64;54.00
29/02/2020 13:30;1;157;157;34.12;55.00
29/02/2020 14:00;1;158;158;34.01;54.00
29/02/2020 14:30;1;152;152;33.67;78.00
29/02/2020 15:00;1;136;136;33.43;60.00
29/02/2020 15:30;1;158;158;32.91;46.00
29/02/2020 16:00;1;146;146;34.08;60.00
29/02/2020 16:30;1;138;138;34.53;59.00
29/02/2020 17:00;1;134;134;33.83;55.00
29/02/2020 17:30;1;156;156;33.01;52.00
29/02/2020 18:00;1;125;125;35.02;53.00
29/02/2020 18:30;1;108;108;35.10;50.00
29/02/2020 19:00;1;63;63;38.97;58.00
29/02/2020 19:30;1;58;58;37.07;56.00
29/02/2020 20:00;1;64;64;37.48;55.00
29/02/2020 20:30;1;57;57;39.30;62.00
29/02/2020 21:00;1;37;37;36.73;48.00
29/02/2020 21:30;1;24;24;39.04;50.00
29/02/2020 22:00;1;15;15;36.93;54.00
29/02/2020 22:30;1;26;26;42.12;61.00
29/02/2020 23:00;1;47;47;40.83;87.00
29/02/2020 23:30;1;39;39;39.36;53.00
01/03/2020 00:00;1;23;23;40.35;62.00
01/03/2020 00:30;1;42;42;46.05;94.00
01/03/2020 01:00;1;17;17;39.65;55.00
01/03/2020 01:30;1;15;15;45.33;57.00
01/03/2020 02:00;1;13;13;38.38;47.00
01/03/2020 02:30;1;11;11;41.45;56.00
01/03/2020 03:00;1;7;7;43.43;53.00
01/03/2020 03:30;1;7;7;49.00;81.00
01/03/2020 04:00;1;13;13;38.38;52.00
01/03/2020 04:30;1;18;18;42.28;61.00
01/03/2020 05:00;1;9;9;43.00;65.00
01/03/2020 05:30;1;6;6;33.00;43.00
01/03/2020 06:00;1;10;10;42.40;53.00
01/03/2020 06:30;1;13;13;36.54;44.00
01/03/2020 07:00;1;9;9;39.22;46.00
01/03/2020 07:30;1;10;10;38.30;49.00
01/03/2020 08:00;1;20;20;36.85;60.00
01/03/2020 08:30;1;30;30;37.67;54.00
01/03/2020 09:00;1;29;29;40.07;48.00
01/03/2020 09:30;1;67;67;39.39;61.00
01/03/2020 10:00;1;47;47;38.96;52.00
01/03/2020 10:30;1;61;61;38.33;55.00
01/03/2020 11:00;1;51;51;37.63;51.00
01/03/2020 11:30;1;86;86;38.91;50.00
01/03/2020 12:00;1;74;74;38.91;54.00
01/03/2020 12:30;1;69;69;38.00;53.00
01/03/2020 13:00;1;93;93;37.43;53.00
01/03/2020 13:30;1;67;67;38.19;50.00
01/03/2020 14:00;1;87;87;37.86;58.00
01/03/2020 14:30;1;75;75;37.65;53.00
01/03/2020 15:00;1;88;88;37.22;56.00
01/03/2020 15:30;1;95;95;38.04;57.00
01/03/2020 16:00;1;69;69;39.39;49.00
01/03/2020 16:30;1;98;98;38.57;56.00
01/03/2020 17:00;1;93;93;37.41;61.00
01/03/2020 17:30;1;102;102;37.48;49.00
01/03/2020 18:00;1;84;84;38.48;54.00
01/03/2020 18:30;1;80;80;36.45;49.00
01/03/2020 19:00;1;80;80;37.94;57.00
01/03/2020 19:30;1;56;56;39.23;69.00
01/03/2020 20:00;1;67;67;34.84;49.00
01/03/2020 20:30;1;40;40;40.70;50.00
01/03/2020 21:00;1;49;49;40.22;83.00
01/03/2020 21:30;1;49;49;38.31;56.00
01/03/2020 22:00;1;25;25;42.12;60.00
01/03/2020 22:30;1;40;40;39.70;56.00
01/03/2020 23:00;1;21;21;40.24;50.00
01/03/2020 23:30;1;14;14;34.93;44.00
02/03/2020 00:00;1;17;17;38.18;54.00
02/03/2020 00:30;1;7;7;35.43;44.00
02/03/2020 01:00;1;13;13;35.92;74.00
02/03/2020 01:30;1;3;3;42.00;46.00
02/03/2020 02:00;1;3;3;29.33;37.00
02/03/2020 02:30;1;3;3;41.67;46.00
02/03/2020 03:00;1;4;4;37.75;44.00
02/03/2020 03:30;1;2;2;21.00;22.00
02/03/2020 04:00;1;4;4;37.50;44.00
02/03/2020 04:30;1;8;8;32.88;50.00
02/03/2020 05:00;1;11;11;36.09;49.00
02/03/2020 05:30;1;34;34;37.18;50.00
02/03/2020 06:00;1;56;56;37.64;54.00
02/03/2020 06:30;1;68;68;36.34;48.00
02/03/2020 07:00;1;99;99;34.40;50.00
02/03/2020 07:30;1;146;146;33.35;57.00
02/03/2020 08:00;1;157;157;32.85;52.00
02/03/2020 08:30;1;167;167;32.92;49.00
02/03/2020 09:00;1;128;128;33.55;46.00
02/03/2020 09:30;1;144;144;33.67;56.00
02/03/2020 10:00;1;143;143;31.36;50.00
02/03/2020 10:30;1;138;138;32.96;53.00
02/03/2020 11:00;1;142;142;34.20;50.00
02/03/2020 11:30;1;147;147;34.33;66.00
02/03/2020 12:00;1;139;139;32.68;46.00
02/03/2020 12:30;1;148;148;33.01;49.00
02/03/2020 13:00;1;160;160;33.02;49.00
02/03/2020 13:30;1;126;126;33.68;55.00
02/03/2020 14:00;1;134;134;35.34;57.00
02/03/2020 14:30;1;149;149;33.18;55.00
02/03/2020 15:00;1;170;170;32.31;49.00
02/03/2020 15:30;1;156;156;32.92;54.00
02/03/2020 16:00;1;183;183;33.61;55.00
02/03/2020 16:30;1;174;174;32.99;46.00
02/03/2020 17:00;1;182;182;31.19;54.00
02/03/2020 17:30;1;160;160;33.02;71.00
02/03/2020 18:00;1;162;162;35.07;60.00
02/03/2020 18:30;1;143;143;34.08;56.00
02/03/2020 19:00;1;114;114;36.39;56.00
02/03/2020 19:30;1;88;88;35.81;50.00
02/03/2020 20:00;1;71;71;37.30;67.00
02/03/2020 20:30;1;64;64;38.58;62.00
02/03/2020 21:00;1;58;58;37.43;59.00
02/03/2020 21:30;1;32;32;39.34;52.00
02/03/2020 22:00;1;37;37;42.54;88.00
02/03/2020 22:30;1;24;24;37.75;46.00
02/03/2020 23:00;1;26;26;39.77;62.00
02/03/2020 23:30;1;17;17;39.47;71.00
03/03/2020 00:00;1;22;22;38.55;48.00
03/03/2020 00:30;1;14;14;41.07;71.00
03/03/2020 01:00;1;8;8;40.75;53.00
03/03/2020 01:30;1;4;4;38.00;54.00
03/03/2020 02:00;1;2;2;49.50;55.00
03/03/2020 02:30;1;3;3;47.00;49.00
03/03/2020 03:00;1;3;3;43.67;51.00
03/03/2020 03:30;1;5;5;44.20;55.00
03/03/2020 04:00;1;2;2;40.00;50.00
03/03/2020 04:30;1;15;15;35.60;49.00
03/03/2020 05:00;1;17;17;33.41;48.00
03/03/2020 05:30;1;35;35;37.66;51.00
03/03/2020 06:00;1;38;38;38.08;51.00
03/03/2020 06:30;1;69;69;35.65;50.00
03/03/2020 07:00;1;107;107;35.61;48.00
03/03/2020 07:30;1;137;137;33.92;54.00
03/03/2020 08:00;1;144;144;34.42;51.00
03/03/2020 08:30;1;137;137;34.67;52.00
03/03/2020 09:00;1;126;126;35.71;53.00
03/03/2020 09:30;1;161;161;32.28;49.00
03/03/2020 10:00;1;152;152;33.74;47.00
03/03/2020 10:30;1;136;136;32.98;49.00
03/03/2020 11:00;1;136;136;34.38;50.00
03/03/2020 11:30;1;131;131;34.01;47.00
03/03/2020 12:00;1;153;153;34.59;53.00
03/03/2020 12:30;1;140;140;33.32;47.00
03/03/2020 13:00;1;161;161;33.29;50.00
03/03/2020 13:30;1;153;153;33.20;50.00
03/03/2020 14:00;1;136;136;34.82;51.00
03/03/2020 14:30;1;145;145;32.77;48.00
03/03/2020 15:00;1;148;148;33.64;60.00
03/03/2020 15:30;1;161;161;33.65;51.00
03/03/2020 16:00;1;178;178;33.19;57.00
03/03/2020 16:30;1;176;176;34.02;58.00
03/03/2020 17:00;1;177;177;33.58;50.00
03/03/2020 17:30;1;179;179;33.29;52.00
03/03/2020 18:00;1;153;153;33.35;64.00
03/03/2020 18:30;1;136;136;33.46;51.00
03/03/2020 19:00;1;125;125;33.82;57.00
03/03/2020 19:30;1;95;95;36.14;54.00
03/03/2020 20:00;1;85;85;37.20;51.00
03/03/2020 20:30;1;65;65;36.40;59.00
03/03/2020 21:00;1;57;57;37.44;56.00
03/03/2020 21:30;1;42;42;35.71;54.00
03/03/2020 22:00;1;41;41;38.56;61.00
03/03/2020 22:30;1;35;35;38.17;47.00
03/03/2020 23:00;1;21;21;35.57;53.00
03/03/2020 23:30;1;16;16;35.25;46.00
04/03/2020 00:00;1;14;14;38.64;52.00
04/03/2020 00:30;1;11;11;40.27;57.00
04/03/2020 01:00;1;4;4;29.50;40.00
04/03/2020 01:30;1;1;1;45.00;45.00
04/03/2020 02:00;1;6;6;35.67;47.00
04/03/2020 02:30;1;4;4;44.50;52.00
04/03/2020 03:00;1;4;4;40.75;48.00
04/03/2020 03:30;1;2;2;50.00;55.00
04/03/2020 04:30;1;13;13;34.08;45.00
04/03/2020 05:00;1;11;11;42.18;51.00
04/03/2020 05:30;1;51;51;36.88;51.00
04/03/2020 06:00;1;44;44;34.45;46.00
04/03/2020 06:30;1;65;65;36.60;50.00
04/03/2020 07:00;1;97;97;35.37;50.00
04/03/2020 07:30;1;152;152;34.09;59.00
04/03/2020 08:00;1;141;141;34.01;47.00
04/03/2020 08:30;1;157;157;33.22;51.00
04/03/2020 09:00;1;139;139;34.11;54.00
04/03/2020 09:30;1;139;139;33.44;47.00
04/03/2020 10:00;1;128;128;32.95;52.00
04/03/2020 10:30;1;145;145;33.97;49.00
04/03/2020 11:00;1;141;141;34.56;49.00
04/03/2020 11:30;1;143;143;32.55;48.00
04/03/2020 12:00;1;141;141;34.62;48.00
04/03/2020 12:30;1;166;166;34.10;48.00
04/03/2020 13:00;1;155;155;32.95;54.00
04/03/2020 13:30;1;146;146;34.41;56.00
04/03/2020 14:00;1;138;138;34.06;49.00
04/03/2020 14:30;1;146;146;31.97;47.00
04/03/2020 15:00;1;144;144;32.15;61.00
04/03/2020 15:30;1;165;165;33.64;50.00
04/03/2020 16:00;1;167;167;33.16;59.00
04/03/2020 16:30;1;203;203;33.17;47.00
04/03/2020 17:00;1;173;173;32.87;52.00
04/03/2020 17:30;1;164;164;34.10;56.00
04/03/2020 18:00;1;177;177;33.55;55.00
04/03/2020 18:30;1;158;158;34.13;55.00
04/03/2020 19:00;1;108;108;35.26;48.00
04/03/2020 19:30;1;107;107;34.20;52.00
04/03/2020 20:00;1;91;91;35.98;57.00
04/03/2020 20:30;1;50;50;37.24;73.00
04/03/2020 21:00;1;57;57;38.96;62.00
04/03/2020 21:30;1;45;45;35.56;62.00
04/03/2020 22:00;1;56;56;38.54;61.00
04/03/2020 22:30;1;37;37;42.11;58.00
04/03/2020 23:00;1;22;22;40.59;83.00
04/03/2020 23:30;1;17;17;41.35;52.00
05/03/2020 00:00;1;22;22;43.09;62.00
05/03/2020 00:30;1;13;13;38.77;59.00
05/03/2020 01:00;1;10;10;38.70;58.00
05/03/2020 01:30;1;11;11;32.64;44.00
05/03/2020 02:00;1;6;6;40.50;52.00
05/03/2020 02:30;1;4;4;42.75;50.00
05/03/2020 03:00;1;4;4;32.75;40.00
05/03/2020 03:30;1;8;8;42.38;49.00
05/03/2020 04:00;1;1;1;41.00;41.00
05/03/2020 04:30;1;10;10;35.90;54.00
05/03/2020 05:00;1;16;16;35.56;47.00
05/03/2020 05:30;1;35;35;37.86;50.00
05/03/2020 06:00;1;48;48;39.06;58.00
05/03/2020 06:30;1;66;66;38.73;66.00
05/03/2020 07:00;1;111;111;34.22;49.00
05/03/2020 07:30;1;136;136;34.49;49.00
05/03/2020 08:00;1;135;135;35.99;51.00
05/03/2020 08:30;1;159;159;33.94;53.00
05/03/2020 09:00;1;128;128;35.09;50.00
05/03/2020 09:30;1;144;144;33.65;53.00
05/03/2020 10:00;1;138;138;31.57;47.00
05/03/2020 10:30;1;137;137;33.21;51.00
05/03/2020 11:00;1;132;132;33.76;54.00
05/03/2020 11:30;1;129;129;34.76;48.00
05/03/2020 12:00;1;155;155;34.79;64.00
05/03/2020 12:30;1;133;133;33.92;52.00
05/03/2020 13:00;1;127;127;34.89;63.00
05/03/2020 13:30;1;130;130;33.68;53.00
05/03/2020 14:00;1;110;110;34.43;51.00
05/03/2020 14:30;1;145;145;34.48;53.00
05/03/2020 15:00;1;144;144;34.49;49.00
05/03/2020 15:30;1;167;167;34.65;60.00
05/03/2020 16:00;1;173;173;33.58;52.00
05/03/2020 16:30;1;166;166;33.09;51.00
05/03/2020 17:00;1;151;151;34.02;53.00
05/03/2020 17:30;1;151;151;35.67;51.00
05/03/2020 18:00;1;167;167;35.19;55.00
05/03/2020 18:30;1;118;118;36.31;51.00
05/03/2020 19:00;1;133;133;35.08;53.00
05/03/2020 19:30;1;87;87;37.34;58.00
05/03/2020 20:00;1;100;100;36.40;47.00
05/03/2020 20:30;1;64;64;38.73;51.00
05/03/2020 21:00;1;58;58;39.50;54.00
05/03/2020 21:30;1;44;44;42.48;55.00
05/03/2020 22:00;1;51;51;39.37;61.00
05/03/2020 22:30;1;45;45;41.80;90.00
05/03/2020 23:00;1;25;25;39.44;85.00
05/03/2020 23:30;1;15;15;40.73;51.00
06/03/2020 00:00;1;15;15;40.13;54.00
06/03/2020 00:30;1;9;9;37.00;60.00
06/03/2020 01:00;1;9;9;41.22;50.00
06/03/2020 01:30;1;3;3;28.67;32.00
06/03/2020 02:00;1;5;5;39.40;46.00
06/03/2020 02:30;1;4;4;46.25;65.00
06/03/2020 03:00;1;2;2;43.00;52.00
06/03/2020 03:30;1;2;2;49.00;51.00
06/03/2020 04:00;1;4;4;34.25;48.00
06/03/2020 04:30;1;6;6;34.33;49.00
06/03/2020 05:00;1;12;12;42.50;57.00
06/03/2020 05:30;1;46;46;39.57;57.00
06/03/2020 06:00;1;37;37;34.22;56.00
06/03/2020 06:30;1;50;50;38.98;51.00
06/03/2020 07:00;1;87;87;35.66;52.00
06/03/2020 07:30;1;145;145;33.76;50.00
06/03/2020 08:00;1;152;152;36.44;54.00
06/03/2020 08:30;1;135;135;34.83;52.00
06/03/2020 09:00;1;143;143;35.10;54.00
06/03/2020 09:30;1;129;129;34.53;51.00
06/03/2020 10:00;1;146;146;34.36;56.00
06/03/2020 10:30;1;125;125;33.71;56.00
06/03/2020 11:00;1;142;142;32.32;64.00
06/03/2020 11:30;1;178;178;34.57;55.00
06/03/2020 12:00;1;157;157;33.38;47.00
06/03/2020 12:30;1;158;158;33.36;60.00
06/03/2020 13:00;1;169;169;34.01;49.00
06/03/2020 13:30;1;165;165;32.92;49.00
06/03/2020 14:00;1;153;153;33.48;58.00
06/03/2020 14:30;1;149;149;34.01;49.00
06/03/2020 15:00;1;153;153;33.84;52.00
06/03/2020 15:30;1;159;159;33.40;53.00
06/03/2020 16:00;1;163;163;32.58;58.00
06/03/2020 16:30;1;185;185;33.48;71.00
06/03/2020 17:00;1;155;155;34.95;53.00
06/03/2020 17:30;1;154;154;35.36;69.00
06/03/2020 18:00;1;161;161;34.17;49.00
06/03/2020 18:30;1;131;131;35.09;50.00
06/03/2020 19:00;1;119;119;35.17;53.00
06/03/2020 19:30;1;99;99;35.42;51.00
06/03/2020 20:00;1;88;88;36.95;52.00
06/03/2020 20:30;1;73;73;37.16;56.00
06/03/2020 21:00;1;66;66;37.44;51.00
06/03/2020 21:30;1;55;55;37.76;59.00
06/03/2020 22:00;1;42;42;39.50;56.00
06/03/2020 22:30;1;42;42;40.10;60.00
06/03/2020 23:00;1;52;52;38.98;56.00
06/03/2020 23:30;1;38;38;41.45;60.00
07/03/2020 00:00;1;32;32;40.00;60.00
07/03/2020 00:30;1;13;13;39.31;57.00
07/03/2020 01:00;1;11;11;41.82;64.00
07/03/2020 01:30;1;9;9;37.78;46.00
07/03/2020 02:00;1;13;13;45.15;72.00
07/03/2020 02:30;1;15;15;45.67;73.00
07/03/2020 03:00;1;12;12;40.42;61.00
07/03/2020 03:30;1;11;11;40.00;59.00
07/03/2020 04:00;1;16;16;39.25;71.00
07/03/2020 04:30;1;18;18;40.33;65.00
07/03/2020 05:00;1;13;13;38.15;47.00
07/03/2020 05:30;1;29;29;37.86;59.00
07/03/2020 06:00;1;13;13;35.54;55.00
07/03/2020 06:30;1;32;32;39.62;57.00
07/03/2020 07:00;1;23;23;35.35;54.00
07/03/2020 07:30;1;35;35;33.69;47.00
07/03/2020 08:00;1;56;56;36.59;61.00
07/03/2020 08:30;1;97;97;36.96;51.00
07/03/2020 09:00;1;84;84;34.36;52.00
07/03/2020 09:30;1;126;126;34.43;49.00
07/03/2020 10:00;1;132;132;33.85;50.00
07/03/2020 10:30;1;148;148;33.74;61.00
07/03/2020 11:00;1;156;156;34.26;58.00
07/03/2020 11:30;1;148;148;34.64;52.00
07/03/2020 12:00;1;152;152;34.13;47.00
07/03/2020 12:30;1;132;132;33.08;50.00
07/03/2020 13:00;1;149;149;32.78;50.00
07/03/2020 13:30;1;165;165;33.65;63.00
07/03/2020 14:00;1;160;160;32.58;51.00
07/03/2020 14:30;1;156;156;33.32;49.00
07/03/2020 15:00;1;163;163;33.12;49.00
07/03/2020 15:30;1;153;153;33.99;56.00
07/03/2020 16:00;1;152;152;34.83;54.00
07/03/2020 16:30;1;152;152;34.93;54.00
07/03/2020 17:00;1;128;128;34.32;59.00
07/03/2020 17:30;1;143;143;32.97;47.00
07/03/2020 18:00;1;141;141;34.21;52.00
07/03/2020 18:30;1;105;105;34.96;68.00
07/03/2020 19:00;1;101;101;32.43;70.00
07/03/2020 19:30;1;102;102;36.75;56.00
07/03/2020 20:00;1;83;83;36.67;59.00
07/03/2020 20:30;1;69;69;36.29;51.00
07/03/2020 21:00;1;55;55;39.53;59.00
07/03/2020 21:30;1;53;53;38.43;60.00
07/03/2020 22:00;1;56;56;40.16;61.00
07/03/2020 22:30;1;32;32;40.97;62.00
07/03/2020 23:00;1;43;43;37.42;55.00
07/03/2020 23:30;1;44;44;39.95;54.00
08/03/2020 00:00;1;34;34;38.76;81.00
08/03/2020 00:30;1;23;23;40.52;55.00
08/03/2020 01:00;1;19;19;38.89;46.00
08/03/2020 01:30;1;20;20;40.25;72.00
08/03/2020 02:00;1;17;17;45.12;68.00
08/03/2020 02:30;1;14;14;38.93;45.00
08/03/2020 03:00;1;22;22;40.14;58.00
08/03/2020 03:30;1;17;17;44.94;56.00
08/03/2020 04:00;1;13;13;43.92;59.00
08/03/2020 04:30;1;13;13;46.62;69.00
08/03/2020 05:00;1;21;21;43.00;67.00
08/03/2020 05:30;1;15;15;36.20;50.00
08/03/2020 06:00;1;9;9;39.11;53.00
08/03/2020 06:30;1;17;17;42.06;53.00
08/03/2020 07:00;1;13;13;41.31;53.00
08/03/2020 07:30;1;14;14;34.79;45.00
08/03/2020 08:00;1;13;13;38.69;50.00
08/03/2020 08:30;1;20;20;40.60;53.00
08/03/2020 09:00;1;36;36;41.47;59.00
08/03/2020 09:30;1;60;60;39.47;56.00
08/03/2020 10:00;1;39;39;38.87;95.00
08/03/2020 10:30;1;62;62;39.29;60.00
08/03/2020 11:00;1;83;83;38.47;53.00
08/03/2020 11:30;1;78;78;36.95;55.00
08/03/2020 12:00;1;61;61;37.66;52.00
08/03/2020 12:30;1;68;68;38.19;52.00
08/03/2020 13:00;1;71;71;38.85;60.00
08/03/2020 13:30;1;76;76;38.11;60.00
08/03/2020 14:00;1;79;79;38.91;50.00
08/03/2020 14:30;1;76;76;36.30;47.00
08/03/2020 15:00;1;70;70;39.91;78.00
08/03/2020 15:30;1;110;110;38.98;57.00
08/03/2020 16:00;1;72;72;37.33;61.00
08/03/2020 16:30;1;101;101;35.78;51.00
08/03/2020 17:00;1;100;100;37.93;57.00
08/03/2020 17:30;1;100;100;39.41;69.00
08/03/2020 18:00;1;113;113;36.35;49.00
08/03/2020 18:30;1;75;75;35.76;54.00
08/03/2020 19:00;1;74;74;39.09;74.00
08/03/2020 19:30;1;66;66;37.76;54.00
08/03/2020 20:00;1;66;66;37.18;50.00
08/03/2020 20:30;1;66;66;38.18;76.00
08/03/2020 21:00;1;45;45;39.38;50.00
08/03/2020 21:30;1;40;40;38.88;61.00
08/03/2020 22:00;1;42;42;40.55;60.00
08/03/2020 22:30;1;32;32;38.84;48.00
08/03/2020 23:00;1;27;27;39.04;50.00
08/03/2020 23:30;1;14;14;43.29;61.00
09/03/2020 00:00;1;18;18;39.89;47.00
09/03/2020 00:30;1;7;7;38.71;45.00
09/03/2020 01:00;1;10;10;35.50;59.00
09/03/2020 01:30;1;1;1;33.00;33.00
09/03/2020 02:00;1;1;1;39.00;39.00
09/03/2020 02:30;1;2;2;41.50;43.00
09/03/2020 03:00;1;1;1;37.00;37.00
09/03/2020 03:30;1;3;3;30.67;49.00
09/03/2020 04:00;1;7;7;39.14;46.00
09/03/2020 04:30;1;12;12;34.17;47.00
09/03/2020 05:00;1;19;19;41.95;71.00
09/03/2020 05:30;1;40;40;37.83;52.00
09/03/2020 06:00;1;60;60;38.18;68.00
09/03/2020 06:30;1;59;59;37.17;49.00
09/03/2020 07:00;1;87;87;35.75;53.00
09/03/2020 07:30;1;134;134;34.45;49.00
09/03/2020 08:00;1;135;135;35.24;55.00
09/03/2020 08:30;1;143;143;34.03;50.00
09/03/2020 09:00;1;130;130;35.88;62.00
09/03/2020 09:30;1;149;149;34.64;47.00
09/03/2020 10:00;1;109;109;32.87;55.00
09/03/2020 10:30;1;142;142;34.18;51.00
09/03/2020 11:00;1;128;128;35.31;58.00
09/03/2020 11:30;1;140;140;33.66;49.00
09/03/2020 12:00;1;159;159;33.57;47.00
09/03/2020 12:30;1;134;134;34.69;54.00
09/03/2020 13:00;1;161;161;33.12;55.00
09/03/2020 13:30;1;140;140;34.72;53.00
09/03/2020 14:00;1;130;130;34.92;57.00
09/03/2020 14:30;1;124;124;33.90;51.00
09/03/2020 15:00;1;179;179;32.30;51.00
09/03/2020 15:30;1;174;174;32.16;47.00
09/03/2020 16:00;1;167;167;32.72;47.00
09/03/2020 16:30;1;178;178;33.10;51.00
09/03/2020 17:00;1;160;160;32.12;48.00
09/03/2020 17:30;1;168;168;33.92;50.00
09/03/2020 18:00;1;151;151;33.92;51.00
09/03/2020 18:30;1;131;131;34.84;52.00
09/03/2020 19:00;1;142;142;35.77;56.00
09/03/2020 19:30;1;103;103;35.60;56.00
09/03/2020 20:00;1;80;80;38.06;55.00
09/03/2020 20:30;1;51;51;36.84;54.00
09/03/2020 21:00;1;72;72;38.56;58.00
09/03/2020 21:30;1;45;45;40.18;63.00
09/03/2020 22:00;1;35;35;40.80;77.00
09/03/2020 22:30;1;31;31;41.45;121.00
09/03/2020 23:00;1;15;15;37.80;53.00
09/03/2020 23:30;1;9;9;39.33;56.00
10/03/2020 00:00;1;16;16;38.75;48.00
10/03/2020 00:30;1;14;14;37.29;60.00
10/03/2020 01:00;1;6;6;37.83;43.00
10/03/2020 01:30;1;4;4;42.00;57.00
10/03/2020 02:00;1;4;4;35.00;39.00
10/03/2020 02:30;1;3;3;47.67;64.00
10/03/2020 03:00;1;1;1;30.00;30.00
10/03/2020 03:30;1;4;4;33.75;51.00
10/03/2020 04:00;1;3;3;38.33;42.00
10/03/2020 04:30;1;14;14;40.21;56.00
10/03/2020 05:00;1;11;11;38.27;43.00
10/03/2020 05:30;1;35;35;37.94;59.00
10/03/2020 06:00;1;43;43;38.30;55.00
10/03/2020 06:30;1;61;61;35.92;47.00
10/03/2020 07:00;1;89;89;34.07;50.00
10/03/2020 07:30;1;134;134;31.06;52.00
10/03/2020 08:00;1;111;111;33.17;53.00
10/03/2020 08:30;1;117;117;33.24;46.00
10/03/2020 09:00;1;111;111;32.68;78.00
10/03/2020 09:30;1;106;106;32.67;47.00
10/03/2020 10:00;1;103;103;33.39;44.00
10/03/2020 10:30;1;132;132;33.27;52.00
10/03/2020 11:00;1;124;124;33.74;47.00
10/03/2020 11:30;1;125;125;34.98;51.00
10/03/2020 12:00;1;137;137;34.55;53.00
10/03/2020 12:30;1;138;138;35.01;52.00
10/03/2020 13:00;1;127;127;34.45;50.00
10/03/2020 13:30;1;136;136;33.75;54.00
10/03/2020 14:00;1;115;115;34.97;50.00
10/03/2020 14:30;1;152;152;33.94;48.00
10/03/2020 15:00;1;124;124;34.00;49.00
10/03/2020 15:30;1;152;152;34.07;60.00
10/03/2020 16:00;1;177;177;33.69;51.00
10/03/2020 16:30;1;168;168;33.32;64.00
10/03/2020 17:00;1;158;158;34.42;52.00
10/03/2020 17:30;1;152;152;32.75;50.00
10/03/2020 18:00;1;158;158;34.92;68.00
10/03/2020 18:30;1;130;130;33.65;49.00
10/03/2020 19:00;1;115;115;35.97;56.00
10/03/2020 19:30;1;113;113;35.77;76.00
10/03/2020 20:00;1;82;82;36.59;54.00
10/03/2020 20:30;1;79;79;36.29;58.00
10/03/2020 21:00;1;61;61;36.70;49.00
10/03/2020 21:30;1;39;39;39.97;64.00
10/03/2020 22:00;1;46;46;39.28;64.00
10/03/2020 22:30;1;37;37;35.51;45.00
10/03/2020 23:00;1;16;16;36.62;49.00
10/03/2020 23:30;1;9;9;39.89;45.00
11/03/2020 00:00;1;13;13;32.15;42.00
11/03/2020 00:30;1;11;11;42.45;53.00
11/03/2020 01:00;1;8;8;36.62;46.00
11/03/2020 01:30;1;4;4;46.50;51.00
11/03/2020 02:00;1;8;8;47.62;94.00
11/03/2020 02:30;1;2;2;47.50;54.00
11/03/2020 03:00;1;4;4;37.25;57.00
11/03/2020 03:30;1;4;4;32.75;44.00
11/03/2020 04:00;1;3;3;44.33;50.00
11/03/2020 04:30;1;13;13;39.69;46.00
11/03/2020 05:00;1;13;13;38.31;48.00
11/03/2020 05:30;1;38;38;38.79;59.00
11/03/2020 06:00;1;45;45;37.13;47.00
11/03/2020 06:30;1;73;73;36.27;52.00
11/03/2020 07:00;1;95;95;35.77;49.00
11/03/2020 07:30;1;126;126;33.75;50.00
11/03/2020 08:00;1;122;122;32.52;49.00
11/03/2020 08:30;1;134;134;34.49;69.00
11/03/2020 09:00;1;133;133;33.35;50.00
11/03/2020 09:30;1;148;148;33.51;48.00
11/03/2020 10:00;1;126;126;34.41;49.00
11/03/2020 10:30;1;130;130;33.72;47.00
11/03/2020 11:00;1;142;142;34.14;64.00
11/03/2020 11:30;1;121;121;34.68;52.00
11/03/2020 12:00;1;155;155;33.99;81.00
11/03/2020 12:30;1;147;147;33.25;45.00
11/03/2020 13:00;1;138;138;34.38;64.00
11/03/2020 13:30;1;140;140;33.89;55.00
11/03/2020 14:00;1;157;157;33.01;49.00
11/03/2020 14:30;1;169;169;33.50;56.00
11/03/2020 15:00;1;158;158;33.77;72.00
11/03/2020 15:30;1;157;157;33.15;48.00
11/03/2020 16:00;1;170;170;33.70;50.00
11/03/2020 16:30;1;193;193;32.57;64.00
11/03/2020 17:00;1;160;160;33.09;56.00
11/03/2020 17:30;1;171;171;33.45;74.00
11/03/2020 18:00;1;150;150;34.27;53.00
11/03/2020 18:30;1;149;149;32.42;55.00
11/03/2020 19:00;1;117;117;34.62;55.00
11/03/2020 19:30;1;99;99;34.85;51.00
11/03/2020 20:00;1;79;79;34.44;52.00
11/03/2020 20:30;1;67;67;35.57;62.00
11/03/2020 21:00;1;57;57;37.98;52.00
11/03/2020 21:30;1;61;61;38.61;76.00
11/03/2020 22:00;1;42;42;40.21;67.00
11/03/2020 22:30;1;18;18;37.56;52.00
11/03/2020 23:00;1;31;31;38.97;52.00
11/03/2020 23:30;1;20;20;39.00;57.00
12/03/2020 00:00;1;28;28;37.07;57.00
12/03/2020 00:30;1;7;7;50.71;88.00
12/03/2020 01:00;1;8;8;36.50;46.00
12/03/2020 01:30;1;13;13;37.46;50.00
12/03/2020 02:00;1;3;3;31.33;39.00
12/03/2020 02:30;1;2;2;37.00;42.00
12/03/2020 03:00;1;7;7;38.43;45.00
12/03/2020 03:30;1;5;5;40.80;46.00
12/03/2020 04:00;1;2;2;31.00;34.00
12/03/2020 04:30;1;12;12;37.42;51.00
12/03/2020 05:00;1;12;12;38.92;45.00
12/03/2020 05:30;1;33;33;37.82;53.00
12/03/2020 06:00;1;53;53;34.75;49.00
12/03/2020 06:30;1;66;66;34.89;52.00
12/03/2020 07:00;1;103;103;32.83;46.00
12/03/2020 07:30;1;131;131;32.96;53.00
12/03/2020 08:00;1;135;135;34.20;52.00
12/03/2020 08:30;1;132;132;35.13;53.00
12/03/2020 09:00;1;139;139;33.52;46.00
12/03/2020 09:30;1;148;148;33.18;47.00
12/03/2020 10:00;1;147;147;31.77;47.00
12/03/2020 10:30;1;128;128;32.56;46.00
12/03/2020 11:00;1;142;142;33.28;55.00
12/03/2020 11:30;1;165;165;31.67;60.00
12/03/2020 12:00;1;156;156;34.27;56.00
12/03/2020 12:30;1;150;150;33.43;59.00
12/03/2020 13:00;1;150;150;31.25;47.00
12/03/2020 13:30;1;149;149;32.12;55.00
12/03/2020 14:00;1;160;160;33.54;47.00
12/03/2020 14:30;1;142;142;33.27;50.00
12/03/2020 15:00;1;148;148;32.36;53.00